Home   Weather   Harrisburg   Past weeks

Flag for USA Past Weather in Harrisburg, Pennsylvania, USA — Yesterday and Last 2 Weeks

Now
75 °F

Passing clouds.


Feels Like: 77 °F
Forecast: 59 / 79 °F
Wind: 13 mph from Southeast

Location: Capital City Airport

Current Time: Apr 27, 2017 at 10:33:46 pm

Latest Report: Apr 27, 2017 at 8:56 pm


Visibility: 10 mi

Pressure: 29.76 "Hg

Humidity: 62%

Dew Point: 61 °F

Location of HarrisburgLocation

Past Weather in Harrisburg — Graph

°F

Harrisburg Temperature Yesterday

Maximum temperature yesterday: 69 °F (at 6:11 pm)
Minimum temperature yesterday: 56 °F (at 3:56 am)
Average temperature yesterday: 60 °F

High & Low Weather Summary for the Past Weeks

 TemperatureHumidityPressure
High85 °F (Apr 16, 12:56 pm)94% (Apr 27, 7:55 am)30.45 "Hg (Apr 27, 7:55 am)
Low39 °F (Apr 23, 6:56 am)18% (Apr 17, 7:56 pm)29.73 "Hg (Apr 27, 4:56 pm)
Average60 °F64%30.06 "Hg
* Reported Apr 12 8:56 pm — Apr 27 8:56 pm, Harrisburg, Weather by CustomWeather, © 2017

Note: Actual official high and low records may vary slightly from our data, if they occured in-between our weather recording intervals... More about our weather records

Advertising

Harrisburg Weather History for the Previous 24 Hours

Scroll right to see more
 ConditionsComfort  
Time TempWeatherWind HumidityBarometerVisibility
8:56 pm
Thu, Apr 27
75 °FPassing clouds.13 mph62%29.76 "Hg10 mi
7:56 pm76 °FSunny.8 mph62%29.75 "Hg10 mi
6:56 pm78 °FSunny.9 mph58%29.74 "Hg10 mi
5:56 pm80 °FScattered clouds.14 mph54%29.74 "Hg10 mi
4:56 pm82 °FScattered clouds.17 mph48%29.73 "Hg10 mi
3:56 pm83 °FSunny.15 mph46%29.74 "Hg10 mi
2:56 pm80 °FPassing clouds.9 mph52%29.76 "Hg10 mi
1:56 pm77 °FSunny.10 mph62%29.78 "Hg10 mi
12:56 pm74 °FPassing clouds.9 mph67%29.81 "Hg10 mi
12:32 pm72 °FScattered clouds.9 mph68%29.83 "Hg10 mi
11:56 am70 °FOvercast.9 mph73%29.84 "Hg9 mi
10:56 am65 °FOvercast.9 mph78%29.86 "Hg7 mi
10:30 am64 °FOvercast.8 mph81%29.87 "Hg6 mi
9:56 am62 °FLow clouds.7 mph83%29.85 "Hg6 mi
9:03 am60 °FFog.6 mph86%29.87 "Hg4 mi
8:56 am59 °FFog.7 mph90%29.87 "Hg3 mi
7:55 am57 °FFog.6 mph94%29.87 "Hg2 mi
7:35 am57 °FFog.6 mph93%29.87 "Hg1 mi
6:56 am57 °FFog.6 mph93%29.85 "Hg1 mi
6:36 am57 °FFog.5 mph90%29.85 "Hg1 mi
6:19 am56 °FFog.3 mph93%29.85 "Hg1 mi
5:56 am56 °FFog.No wind93%29.84 "Hg0 mi
4:56 am56 °FFog.5 mph93%29.83 "Hg0 mi
4:38 am57 °FFog.3 mph90%29.83 "Hg1 mi
3:56 am57 °FFog.No wind90%29.82 "Hg4 mi
3:20 am56 °FFog.No wind93%29.82 "Hg4 mi
3:08 am57 °FFog.No wind93%29.82 "Hg4 mi
2:34 am57 °FFog.No wind90%29.82 "Hg5 mi
1:56 am56 °FFog.No wind90%29.83 "Hg6 mi
12:56 am57 °FClear.5 mph90%29.83 "Hg7 mi
11:56 pm
Wed, Apr 26
58 °FClear.No wind87%29.83 "Hg10 mi
10:56 pm59 °FClear.No wind87%29.83 "Hg10 mi
Weather by CustomWeather, © 2017

See weather overviewHow to use our weather pages